Location: Unspecified
(40.4667°N, 0.0000°E)
Time: 19:44:07
(UTC+00:00)

ISS - Pass Details

Date: 20 May 2019
Orbit: 408 x 418 km, 51.6° (Epoch: 17 June)

Event Time Altitude Azimuth Distance (km) Brightness Sun altitude
Rises 22:13:25 0° 287° (WNW) 2,355 0.7 -24.9°
Reaches altitude 10° 22:16:15 10° 313° (NW) 1,496 -0.1 -25.1°
Maximum altitude 22:18:11 14° 349° (NNW) 1,257 -0.5 -25.3°
Drops below altitude 10° 22:20:08 10° 24° (NNE) 1,501 -0.5 -25.4°
Enters shadow 22:25:37 -7° 61° (ENE) 3,335 0.9 -25.9°
